Wind_Speed
21 22 22 22 22 23 23 23 24 24 25 26 26 26 27 28 30 32 33 34 33 32 33 35 36 37 38 39 39 40 40 39 41 41 42 42 43 44 44 44 44 43 43 44
21 22 22 22 23 23 24 24 25 26 27 27 28 27 27 28 30 31 32 34 34 33 32 33 35 37 38 38 39 39 40 41 41 41 42 43 44 45 45 46 46 45 45 45
22 22 23 23 24 25 25 25 26 27 28 29 30 30 29 29 30 31 32 33 33 33 33 33 34 36 38 38 38 39 40 41 42 42 43 43 44 45 46 47 47 47 47 47
24 24 24 24 25 26 25 26 27 28 29 30 31 32 30 31 30 31 32 33 33 33 33 33 34 35 37 38 38 39 40 41 43 43 43 43 44 45 46 47 47 48 47 47
25 25 25 25 25 26 26 27 28 29 29 31 31 33 31 32 32 31 32 32 33 33 33 33 34 35 36 37 37 37 38 39 41 43 43 44 44 44 45 46 47 47 46 46
25 26 26 26 26 26 26 27 29 30 30 31 31 33 32 31 31 31 31 31 31 32 33 33 33 35 35 36 37 38 38 38 38 40 41 42 43 44 45 46 46 47 47 47
26 26 26 27 27 27 27 28 29 30 31 31 30 32 31 29 29 29 30 29 30 30 31 32 33 34 34 35 36 37 37 38 39 39 39 41 42 44 45 46 47 47 48 48
27 27 27 28 28 28 28 28 29 31 32 30 29 30 29 28 28 28 29 29 30 30 31 31 32 33 34 34 35 36 36 37 38 39 39 39 39 41 43 45 47 48 48 47
27 27 26 27 28 29 29 29 29 31 32 31 30 30 29 28 28 28 28 29 30 30 30 31 31 32 33 33 34 34 35 36 37 37 38 40 40 41 42 43 44 46 46 47
27 27 25 26 27 28 29 29 30 30 31 32 31 30 29 28 28 29 29 29 29 29 29 30 31 32 32 32 33 34 35 36 37 38 39 40 41 41 41 41 42 43 44 45
28 28 27 26 27 27 28 29 30 30 31 32 32 30 29 30 30 30 30 29 29 29 30 30 30 30 31 32 33 34 35 36 36 37 38 39 40 41 41 41 42 43 43 44
28 29 29 28 28 28 28 29 30 30 31 31 32 30 30 30 30 30 30 29 29 29 30 30 30 31 31 33 34 34 35 36 37 37 38 38 39 39 39 40 41 42 43 44
28 29 29 29 28 28 29 30 31 32 32 33 32 31 30 30 30 30 29 28 29 29 30 30 31 32 32 33 33 34 34 35 36 37 37 38 38 38 39 39 40 41 42 43
29 29 30 30 29 29 29 30 31 32 33 33 33 31 30 30 31 31 30 30 30 30 31 31 32 32 33 33 33 33 34 34 35 36 36 37 37 37 38 38 39 40 40 41
30 30 30 30 30 30 30 30 31 32 32 34 32 32 31 31 32 31 31 31 32 32 32 32 33 33 33 33 33 33 33 34 34 35 35 36 36 36 36 37 37 38 38 39
30 31 30 29 30 30 31 31 31 32 33 33 34 32 31 32 32 32 31 32 32 33 33 33 33 33 32 32 33 33 33 33 33 33 33 34 34 35 35 36 37 37 37 37
30 31 31 31 30 31 32 30 30 31 32 33 34 33 33 33 32 32 31 31 32 33 33 32 32 32 32 32 32 33 33 32 32 32 32 33 34 34 34 35 35 35 35 36
28 30 30 31 30 31 31 30 30 31 32 33 33 32 32 32 32 32 32 32 32 32 32 32 32 32 32 32 32 32 32 32 32 32 32 32 33 33 33 34 34 34 34 34
27 28 29 29 30 30 30 30 30 31 31 31 32 31 31 31 32 32 32 32 32 32 31 32 32 32 32 32 31 31 30 30 30 31 31 31 32 32 32 32 33 33 32 32
27 28 28 28 29 29 28 28 29 30 30 28 28 28 28 29 29 29 30 30 30 30 29 29 29 29 29 29 30 29 29 29 29 29 29 30 30 30 31 30 31 31 31 31
26 27 27 27 28 28 28 27 27 28 28 27 27 27 27 27 28 28 28 28 28 28 28 27 27 27 27 28 28 28 27 27 27 27 28 28 29 29 29 29 29 29 30 30
25 26 26 26 27 27 27 27 27 26 26 26 26 26 26 26 27 26 26 26 27 27 26 26 26 26 26 27 27 27 27 27 27 27 28 28 28 27 28 27 28 28 27 26
24 25 25 25 26 27 26 25 25 25 25 25 26 26 26 27 26 25 25 25 25 25 25 25 25 24 24 24 25 25 25 25 25 26 27 27 27 26 25 25 26 26 25 25
25 25 25 25 25 26 26 26 25 25 25 25 26 27 27 27 26 25 24 24 23 23 23 23 23 23 23 22 23 23 23 23 24 24 24 24 25 24 23 23 22 22 22 22
25 26 26 26 26 26 25 25 25 25 26 26 26 26 26 26 25 24 24 23 23 22 22 22 22 22 22 22 22 22 22 22 22 22 22 22 21 21 20 20 19 19 19 19
24 25 26 26 26 25 25 25 25 25 25 25 25 25 25 25 24 24 24 23 22 22 22 22 22 22 22 22 21 21 20 20 19 19 20 20 19 19 19 17 17 16 16 16
Wind_Direction
276 272 272 273 271 268 267 268 269 269 268 267 266 267 267 267 269 269 267 266 268 268 266 264 263 262 260 259 257 254 253 254 254 254 255 256 256 256 257 258 258 259 260 261
276 274 273 273 272 269 268 270 271 271 271 270 269 268 269 270 270 271 269 269 270 270 268 266 264 262 260 259 257 254 254 255 254 255 256 257 258 257 257 258 259 260 261 262
278 276 275 274 273 271 270 272 274 274 273 273 273 271 269 270 272 273 272 271 271 272 270 266 264 262 260 259 257 256 255 255 255 256 258 258 257 257 257 258 260 261 262 262
277 276 275 274 274 273 272 275 276 276 276 275 276 275 270 272 274 275 274 272 271 272 272 269 266 264 262 259 258 257 256 256 257 257 258 259 257 257 258 259 260 262 262 262
279 278 276 273 273 272 273 276 278 279 279 278 277 277 274 275 276 276 276 275 272 272 272 271 268 265 262 259 258 258 258 258 258 258 259 259 259 258 259 259 260 261 262 262
279 279 277 274 273 273 274 276 279 281 281 281 280 279 277 277 278 278 278 277 274 273 273 271 268 266 263 260 259 260 260 261 261 260 259 260 259 259 259 260 261 262 263 263
278 278 278 276 274 274 275 278 281 283 282 283 281 278 279 281 280 281 281 279 277 276 275 272 269 268 264 261 261 261 261 261 261 261 261 262 261 261 261 261 262 263 263 264
280 277 278 277 275 274 274 279 282 285 286 285 280 278 281 283 283 283 282 280 278 277 275 273 270 269 266 263 262 262 262 262 262 263 263 264 265 264 264 263 263 263 263 264
281 280 279 279 277 276 276 278 283 285 285 283 280 280 282 283 284 283 282 281 278 277 275 273 271 270 268 266 264 263 262 262 262 264 265 265 266 267 267 266 265 265 264 265
279 281 280 280 279 278 277 279 282 283 284 283 282 282 284 285 285 284 283 282 279 277 275 273 271 271 268 266 265 264 264 264 264 265 266 266 267 268 268 269 268 267 266 266
279 281 281 280 280 281 279 279 279 280 280 282 283 283 285 286 286 286 283 281 280 278 277 274 272 271 269 267 266 265 265 264 265 266 267 268 268 269 269 269 269 268 267 267
281 281 280 280 281 280 280 280 279 278 280 281 283 286 286 286 286 286 283 280 280 280 279 276 274 272 270 268 267 267 266 266 266 267 267 268 268 268 268 269 269 268 268 267
282 282 282 281 281 281 281 280 278 277 278 279 282 286 286 285 284 284 282 279 279 280 280 278 275 272 271 269 268 267 268 268 267 267 267 267 267 268 268 269 270 269 268 268
280 281 281 282 283 283 283 280 279 278 278 279 281 282 282 283 282 282 280 279 280 280 280 278 277 275 273 271 269 268 268 268 268 268 268 268 268 268 269 270 270 271 270 269
279 281 281 281 282 283 283 281 278 278 278 279 280 280 281 281 281 280 280 280 280 280 281 279 277 275 273 271 270 269 269 268 268 268 269 270 270 270 270 270 271 272 271 270
279 280 280 280 281 282 282 280 278 278 279 279 278 280 281 280 279 279 279 279 279 280 280 278 276 274 274 272 270 269 268 268 269 270 271 272 271 271 271 272 273 273 272 270
280 281 281 281 281 282 281 282 281 281 280 279 280 280 279 279 280 280 280 279 279 280 279 277 275 273 273 273 272 269 268 268 269 270 271 272 273 273 273 274 275 274 273 271
281 282 281 283 283 283 286 283 282 281 280 279 279 280 281 280 280 280 280 280 279 279 277 275 274 273 273 273 273 271 269 269 270 271 272 274 274 275 275 275 275 274 273 273
281 282 283 286 287 288 287 286 285 282 281 280 280 281 282 282 281 281 281 281 281 280 280 277 276 274 273 273 272 271 270 270 270 271 273 275 276 277 277 276 276 274 273 273
281 282 282 286 289 291 291 288 286 284 283 283 282 282 284 285 285 284 282 281 281 281 280 278 277 275 273 272 271 270 271 272 273 273 275 276 278 280 280 279 278 275 275 274
282 283 283 284 287 290 291 289 288 286 287 285 284 285 286 287 288 288 286 284 283 282 280 278 277 276 274 273 272 270 271 272 272 274 276 278 280 281 280 278 278 277 276 275
282 283 285 285 286 290 291 289 288 288 287 286 286 286 287 288 289 289 288 285 284 281 279 279 278 277 275 273 272 271 271 271 272 274 276 278 280 281 281 280 279 277 276 274
278 282 285 287 288 289 289 289 289 287 286 286 286 287 288 289 289 288 287 286 284 282 280 278 278 277 275 274 273 273 273 273 274 276 278 279 280 281 280 281 279 277 275 273
277 280 283 287 290 290 289 287 286 285 285 286 287 286 287 288 289 287 287 287 286 285 283 281 279 277 275 274 274 274 275 275 276 278 279 280 281 280 280 280 278 275 274 271
276 280 283 287 290 291 288 286 285 284 285 286 287 287 286 286 287 287 287 287 286 285 284 283 280 278 276 274 275 275 276 277 277 277 279 279 279 278 279 279 276 275 275 271
276 280 284 285 286 288 288 287 286 285 286 286 286 286 287 287 287 287 288 288 287 285 284 283 281 280 278 275 274 273 275 275 277 277 278 279 278 277 278 278 277 274 272 268
Height
5708 5708 5707 5707 5706 5706 5706 5706 5706 5706 5704 5704 5704 5705 5706 5705 5704 5703 5703 5703 5703 5703 5703 5703 5702 5703 5704 5706 5707 5709 5711 5713 5715 5717 5718 5720 5722 5723 5724 5725 5726 5727 5728 5729
5702 5702 5702 5700 5700 5699 5699 5699 5699 5699 5697 5696 5696 5697 5697 5697 5696 5695 5694 5694 5694 5694 5694 5693 5693 5693 5694 5696 5698 5699 5701 5703 5705 5706 5708 5710 5711 5712 5714 5714 5715 5716 5717 5718
5696 5697 5695 5694 5693 5692 5692 5692 5692 5691 5690 5688 5688 5689 5689 5688 5687 5687 5686 5685 5685 5684 5684 5684 5684 5684 5685 5687 5688 5690 5691 5692 5694 5695 5697 5698 5699 5701 5702 5703 5704 5705 5705 5706
5689 5689 5688 5687 5686 5685 5685 5685 5684 5683 5681 5680 5680 5678 5681 5680 5679 5678 5677 5676 5675 5675 5675 5674 5674 5675 5675 5677 5678 5679 5681 5682 5683 5684 5685 5687 5688 5689 5691 5692 5693 5693 5694 5695
5683 5682 5681 5680 5680 5678 5678 5677 5676 5674 5673 5672 5671 5668 5671 5671 5669 5669 5668 5667 5666 5666 5665 5664 5664 5664 5665 5666 5667 5669 5669 5670 5671 5672 5674 5675 5676 5678 5679 5680 5681 5681 5682 5683
5676 5675 5674 5673 5673 5671 5670 5670 5668 5666 5664 5663 5663 5660 5660 5661 5660 5659 5659 5658 5657 5656 5655 5654 5654 5654 5654 5655 5657 5658 5659 5660 5661 5661 5662 5663 5665 5666 5667 5668 5669 5669 5670 5670
5668 5667 5666 5665 5665 5664 5663 5662 5659 5656 5655 5655 5654 5651 5652 5652 5651 5650 5649 5648 5647 5646 5646 5645 5644 5644 5645 5645 5646 5647 5648 5649 5650 5651 5652 5652 5653 5654 5655 5655 5656 5657 5657 5658
5660 5660 5659 5658 5657 5656 5655 5654 5652 5649 5647 5646 5645 5643 5645 5644 5642 5641 5640 5639 5638 5637 5636 5636 5635 5635 5635 5636 5636 5637 5638 5639 5640 5640 5641 5642 5642 5642 5642 5643 5643 5644 5644 5645
5652 5652 5651 5650 5649 5648 5647 5645 5644 5641 5638 5636 5636 5636 5637 5636 5634 5632 5631 5630 5629 5628 5627 5627 5626 5626 5626 5626 5626 5627 5627 5628 5629 5630 5630 5631 5631 5631 5630 5630 5630 5631 5631 5632
5644 5644 5644 5642 5641 5640 5639 5637 5636 5632 5630 5628 5628 5629 5629 5628 5626 5624 5623 5621 5620 5619 5618 5618 5617 5616 5616 5616 5616 5617 5617 5618 5618 5619 5619 5619 5619 5619 5619 5619 5618 5619 5619 5619
5637 5636 5636 5635 5634 5632 5631 5630 5627 5625 5623 5621 5619 5623 5621 5619 5617 5616 5614 5613 5611 5610 5609 5608 5608 5607 5607 5606 5606 5607 5607 5607 5608 5607 5607 5607 5607 5607 5607 5607 5607 5607 5606 5606
5629 5628 5627 5627 5626 5624 5622 5621 5619 5618 5616 5613 5611 5616 5613 5611 5608 5607 5605 5604 5603 5601 5600 5599 5598 5598 5597 5597 5596 5596 5597 5597 5596 5596 5596 5596 5595 5595 5595 5595 5595 5594 5594 5594
5621 5620 5618 5618 5619 5616 5614 5612 5611 5609 5607 5605 5604 5608 5605 5602 5600 5598 5596 5595 5594 5593 5592 5591 5589 5588 5588 5587 5587 5586 5586 5586 5585 5585 5585 5584 5584 5584 5584 5583 5582 5582 5582 5582
5612 5611 5611 5610 5608 5607 5605 5604 5602 5600 5598 5596 5596 5597 5596 5593 5591 5589 5588 5587 5585 5584 5583 5581 5580 5579 5578 5578 5577 5576 5576 5575 5575 5575 5574 5574 5574 5573 5573 5572 5571 5570 5570 5570
5604 5603 5602 5601 5600 5598 5597 5595 5593 5591 5590 5588 5588 5587 5587 5584 5582 5580 5579 5577 5576 5575 5573 5572 5570 5569 5569 5568 5567 5566 5565 5565 5565 5564 5564 5564 5563 5562 5562 5561 5560 5559 5559 5558
5595 5594 5593 5592 5591 5589 5587 5586 5584 5583 5581 5579 5577 5578 5577 5574 5572 5571 5569 5568 5566 5565 5563 5562 5561 5560 5559 5558 5557 5556 5555 5555 5554 5554 5554 5553 5553 5552 5551 5551 5550 5549 5548 5547
5586 5585 5584 5583 5582 5579 5578 5578 5576 5574 5572 5570 5568 5569 5566 5565 5563 5562 5560 5559 5557 5555 5553 5552 5551 5550 5549 5548 5547 5546 5546 5545 5545 5545 5544 5543 5542 5542 5541 5540 5539 5538 5537 5536
5579 5577 5575 5574 5574 5571 5573 5569 5567 5565 5563 5561 5559 5558 5556 5555 5553 5552 5550 5549 5547 5545 5544 5542 5541 5540 5539 5538 5537 5537 5536 5536 5536 5535 5534 5533 5532 5531 5531 5530 5529 5528 5527 5526
5570 5568 5567 5565 5563 5562 5563 5561 5558 5555 5554 5553 5550 5549 5547 5545 5544 5543 5541 5539 5537 5535 5534 5532 5531 5530 5529 5528 5528 5527 5527 5527 5526 5525 5525 5524 5523 5522 5521 5520 5519 5518 5517 5516
5562 5560 5559 5557 5554 5553 5555 5552 5548 5546 5545 5545 5542 5540 5538 5537 5535 5535 5532 5529 5527 5525 5524 5522 5521 5520 5520 5519 5518 5518 5518 5518 5517 5516 5515 5514 5513 5512 5512 5510 5509 5508 5507 5507
5554 5552 5551 5549 5546 5545 5546 5543 5540 5539 5538 5536 5533 5532 5530 5528 5527 5525 5522 5520 5518 5516 5515 5513 5512 5511 5511 5510 5510 5509 5509 5509 5508 5507 5507 5505 5504 5503 5502 5501 5500 5499 5498 5497
5546 5545 5543 5541 5539 5540 5537 5534 5533 5531 5529 5527 5525 5524 5522 5520 5518 5516 5513 5511 5509 5508 5506 5505 5504 5503 5502 5502 5501 5501 5501 5500 5500 5499 5498 5497 5496 5494 5494 5493 5491 5490 5489 5488
5539 5538 5536 5535 5535 5531 5529 5527 5525 5523 5521 5519 5517 5516 5514 5512 5510 5508 5505 5503 5501 5500 5498 5497 5496 5495 5494 5494 5493 5493 5493 5492 5492 5491 5490 5489 5487 5486 5485 5484 5483 5482 5481 5481
5531 5530 5528 5527 5526 5524 5521 5519 5517 5515 5513 5511 5510 5508 5506 5504 5502 5500 5498 5496 5494 5492 5491 5490 5488 5488 5487 5486 5486 5486 5485 5485 5484 5483 5482 5481 5480 5479 5477 5476 5476 5475 5475 5474
5523 5522 5520 5519 5518 5516 5514 5511 5509 5507 5506 5504 5502 5500 5498 5497 5495 5493 5491 5489 5487 5485 5484 5482 5481 5480 5480 5479 5479 5479 5478 5478 5477 5476 5475 5474 5473 5472 5471 5470 5470 5469 5469 5468
5516 5514 5513 5512 5510 5508 5506 5504 5502 5500 5499 5497 5495 5493 5491 5489 5487 5485 5484 5482 5480 5478 5477 5475 5474 5473 5473 5472 5472 5472 5472 5471 5471 5470 5469 5468 5468 5467 5466 5465 5465 5464 5464 5464